Wetterdaten: Mittwoch, 01.07.2015
Datum Zeit Auen-Temp. Temp gefhlt Luftfeuchte Luftdruck Regen Wind Richtung Richtung Taupunkt Windben
01.07.2015 00:00 14,3 C 14,2 C 72 % 1023,8 hPa 0,0 mm 0,0 km/h (0 Bft) SW 225 9,3 C 0,0 km/h (0 Bft)
01.07.2015 00:05 14,2 C 14,1 C 72 % 1023,8 hPa 0,0 mm 0,0 km/h (0 Bft) SW 225 9,2 C 0,0 km/h (0 Bft)
01.07.2015 00:10 14,2 C 14,1 C 73 % 1023,8 hPa 0,0 mm 0,0 km/h (0 Bft) NO 45 9,4 C 0,0 km/h (0 Bft)
01.07.2015 00:15 14,3 C 14,1 C 75 % 1023,4 hPa 0,0 mm 0,0 km/h (0 Bft) NO 45 9,9 C 0,0 km/h (0 Bft)
01.07.2015 00:20 14,1 C 14,0 C 74 % 1023,4 hPa 0,0 mm 0,0 km/h (0 Bft) NO 45 9,5 C 0,0 km/h (0 Bft)
01.07.2015 00:25 14,2 C 14,0 C 75 % 1023,4 hPa 0,0 mm 0,0 km/h (0 Bft) NO 45 9,8 C 0,0 km/h (0 Bft)
01.07.2015 00:30 14,0 C 13,9 C 75 % 1023,4 hPa 0,0 mm 0,0 km/h (0 Bft) NO 45 9,6 C 0,0 km/h (0 Bft)
01.07.2015 00:35 13,8 C 13,7 C 75 % 1023,4 hPa 0,0 mm 0,0 km/h (0 Bft) NO 45 9,4 C 0,0 km/h (0 Bft)
01.07.2015 00:40 13,5 C 13,4 C 75 % 1023,4 hPa 0,0 mm 0,0 km/h (0 Bft) N-NO 22 9,2 C 0,0 km/h (0 Bft)
01.07.2015 00:45 13,4 C 13,3 C 75 % 1023,4 hPa 0,0 mm 0,0 km/h (0 Bft) NO 45 9,1 C 0,0 km/h (0 Bft)
01.07.2015 00:50 13,4 C 13,2 C 76 % 1023,4 hPa 0,0 mm 0,0 km/h (0 Bft) NO 45 9,3 C 0,0 km/h (0 Bft)
01.07.2015 00:55 13,4 C 13,2 C 76 % 1023,2 hPa 0,0 mm 0,0 km/h (0 Bft) NO 45 9,3 C 0,0 km/h (0 Bft)
01.07.2015 01:00 13,4 C 13,2 C 77 % 1023,2 hPa 0,0 mm 0,0 km/h (0 Bft) NO 45 9,5 C 0,0 km/h (0 Bft)
01.07.2015 01:02 13,4 C 13,2 C 77 % 1023,2 hPa 0,0 mm 0,0 km/h (0 Bft) NO 45 9,5 C 0,0 km/h (0 Bft)
01.07.2015 01:05 13,3 C 13,1 C 77 % 1023,2 hPa 0,0 mm 0,0 km/h (0 Bft) NO 45 9,4 C 0,0 km/h (0 Bft)
01.07.2015 01:10 13,2 C 13,0 C 77 % 1023,2 hPa 0,0 mm 0,0 km/h (0 Bft) NO 45 9,3 C 0,0 km/h (0 Bft)
01.07.2015 01:15 13,2 C 13,0 C 78 % 1023,1 hPa 0,0 mm 0,0 km/h (0 Bft) NO 45 9,4 C 0,0 km/h (0 Bft)
01.07.2015 01:20 13,4 C 13,1 C 78 % 1023,1 hPa 0,0 mm 0,0 km/h (0 Bft) NO 45 9,6 C 0,0 km/h (0 Bft)
01.07.2015 01:25 13,4 C 13,1 C 79 % 1023,1 hPa 0,0 mm 0,0 km/h (0 Bft) NO 45 9,8 C 0,0 km/h (0 Bft)
01.07.2015 01:30 13,3 C 13,0 C 79 % 1023,1 hPa 0,0 mm 0,0 km/h (0 Bft) O-SO 112 9,7 C 0,0 km/h (0 Bft)
01.07.2015 01:35 13,1 C 12,9 C 78 % 1023,1 hPa 0,0 mm 0,0 km/h (0 Bft) O-NO 67 9,4 C 0,0 km/h (0 Bft)
01.07.2015 01:40 13,0 C 12,8 C 78 % 1023,1 hPa 0,0 mm 0,0 km/h (0 Bft) N-NO 22 9,3 C 0,0 km/h (0 Bft)
01.07.2015 01:45 12,9 C 12,7 C 79 % 1023,1 hPa 0,0 mm 0,0 km/h (0 Bft) NO 45 9,3 C 0,0 km/h (0 Bft)
01.07.2015 01:50 12,9 C 12,7 C 79 % 1023,1 hPa 0,0 mm 0,0 km/h (0 Bft) W 270 9,3 C 0,0 km/h (0 Bft)
01.07.2015 01:55 12,9 C 12,7 C 79 % 1023,0 hPa 0,0 mm 0,0 km/h (0 Bft) NW 315 9,3 C 0,0 km/h (0 Bft)
01.07.2015 02:00 12,8 C 12,6 C 79 % 1023,0 hPa 0,0 mm 0,0 km/h (0 Bft) N-NW 337 9,2 C 0,0 km/h (0 Bft)
01.07.2015 02:05 12,7 C 12,5 C 79 % 1023,0 hPa 0,0 mm 0,0 km/h (0 Bft) N-NO 22 9,2 C 0,0 km/h (0 Bft)
01.07.2015 02:10 12,6 C 12,4 C 79 % 1023,0 hPa 0,0 mm 0,0 km/h (0 Bft) NW 315 9,1 C 0,0 km/h (0 Bft)
01.07.2015 02:15 12,6 C 12,4 C 79 % 1022,9 hPa 0,0 mm 0,0 km/h (0 Bft) NW 315 9,1 C 0,0 km/h (0 Bft)
01.07.2015 02:20 12,6 C 12,4 C 80 % 1022,9 hPa 0,0 mm 0,0 km/h (0 Bft) W-SW 247 9,2 C 0,0 km/h (0 Bft)
01.07.2015 02:25 12,6 C 12,4 C 80 % 1022,9 hPa 0,0 mm 0,0 km/h (0 Bft) NW 315 9,2 C 0,0 km/h (0 Bft)
01.07.2015 02:30 12,6 C 12,4 C 80 % 1022,9 hPa 0,0 mm 0,0 km/h (0 Bft) NW 315 9,2 C 0,0 km/h (0 Bft)
01.07.2015 02:35 12,6 C 12,4 C 80 % 1022,8 hPa 0,0 mm 0,0 km/h (0 Bft) N-NW 337 9,2 C 0,0 km/h (0 Bft)
01.07.2015 02:40 12,5 C 12,3 C 81 % 1022,8 hPa 0,0 mm 0,0 km/h (0 Bft) N-NW 337 9,3 C 0,0 km/h (0 Bft)
01.07.2015 02:45 12,5 C 12,3 C 81 % 1022,8 hPa 0,0 mm 0,0 km/h (0 Bft) N-NO 22 9,3 C 0,0 km/h (0 Bft)
01.07.2015 02:50 12,3 C 12,1 C 81 % 1022,8 hPa 0,0 mm 0,0 km/h (0 Bft) N-NO 22 9,1 C 0,0 km/h (0 Bft)
01.07.2015 02:55 12,2 C 12,0 C 81 % 1022,7 hPa 0,0 mm 0,0 km/h (0 Bft) N-NO 22 9,0 C 0,0 km/h (0 Bft)
01.07.2015 03:00 12,4 C 12,2 C 82 % 1022,7 hPa 0,0 mm 0,0 km/h (0 Bft) N-NO 22 9,4 C 0,0 km/h (0 Bft)
01.07.2015 03:05 12,3 C 12,1 C 82 % 1022,7 hPa 0,0 mm 0,0 km/h (0 Bft) N-NO 22 9,3 C 0,0 km/h (0 Bft)
01.07.2015 03:10 12,3 C 12,1 C 82 % 1022,7 hPa 0,0 mm 0,0 km/h (0 Bft) W-NW 292 9,3 C 0,0 km/h (0 Bft)
01.07.2015 03:15 12,2 C 12,0 C 82 % 1022,6 hPa 0,0 mm 0,0 km/h (0 Bft) NW 315 9,2 C 0,0 km/h (0 Bft)
01.07.2015 03:20 11,9 C 11,8 C 82 % 1022,6 hPa 0,0 mm 0,0 km/h (0 Bft) NW 315 8,9 C 0,0 km/h (0 Bft)
01.07.2015 03:25 11,9 C 11,8 C 82 % 1022,6 hPa 0,0 mm 0,0 km/h (0 Bft) N-NW 337 8,9 C 0,0 km/h (0 Bft)
01.07.2015 03:30 11,9 C 11,7 C 82 % 1022,6 hPa 0,0 mm 0,0 km/h (0 Bft) SW 225 8,9 C 0,0 km/h (0 Bft)
01.07.2015 03:35 11,9 C 11,7 C 83 % 1022,5 hPa 0,0 mm 0,0 km/h (0 Bft) N-NO 22 9,1 C 0,0 km/h (0 Bft)
01.07.2015 03:40 11,7 C 11,5 C 82 % 1022,5 hPa 0,0 mm 0,0 km/h (0 Bft) NO 45 8,7 C 0,0 km/h (0 Bft)
01.07.2015 03:45 11,8 C 11,6 C 83 % 1022,5 hPa 0,0 mm 0,0 km/h (0 Bft) NO 45 9,0 C 0,0 km/h (0 Bft)
01.07.2015 03:50 11,6 C 11,4 C 83 % 1022,5 hPa 0,0 mm 0,0 km/h (0 Bft) NO 45 8,8 C 0,0 km/h (0 Bft)
01.07.2015 03:55 11,8 C 11,6 C 83 % 1022,6 hPa 0,0 mm 0,0 km/h (0 Bft) NO 45 9,0 C 0,0 km/h (0 Bft)
01.07.2015 04:00 11,8 C 11,6 C 84 % 1022,6 hPa 0,0 mm 0,0 km/h (0 Bft) NO 45 9,2 C 0,0 km/h (0 Bft)
01.07.2015 04:05 11,5 C 11,4 C 84 % 1022,6 hPa 0,0 mm 0,0 km/h (0 Bft) NO 45 8,9 C 0,0 km/h (0 Bft)
01.07.2015 04:10 11,5 C 11,3 C 84 % 1022,6 hPa 0,0 mm 0,0 km/h (0 Bft) W-SW 247 8,9 C 0,0 km/h (0 Bft)
01.07.2015 04:15 11,6 C 11,4 C 84 % 1022,6 hPa 0,0 mm 0,0 km/h (0 Bft) N-NO 22 9,0 C 0,0 km/h (0 Bft)
01.07.2015 04:20 11,5 C 11,3 C 84 % 1022,6 hPa 0,0 mm 0,0 km/h (0 Bft) NO 45 8,9 C 0,0 km/h (0 Bft)
01.07.2015 04:25 11,3 C 11,1 C 84 % 1022,6 hPa 0,0 mm 0,0 km/h (0 Bft) NO 45 8,7 C 0,0 km/h (0 Bft)
01.07.2015 04:30 11,2 C 11,1 C 84 % 1022,6 hPa 0,0 mm 0,0 km/h (0 Bft) N-NO 22 8,6 C 0,0 km/h (0 Bft)
01.07.2015 04:35 11,4 C 11,2 C 84 % 1022,4 hPa 0,0 mm 0,0 km/h (0 Bft) O-NO 67 8,8 C 0,0 km/h (0 Bft)
01.07.2015 04:40 11,6 C 11,3 C 85 % 1022,4 hPa 0,0 mm 0,0 km/h (0 Bft) O-NO 67 9,2 C 0,0 km/h (0 Bft)
01.07.2015 04:45 11,4 C 11,2 C 85 % 1022,4 hPa 0,0 mm 0,0 km/h (0 Bft) W-NW 292 9,0 C 0,0 km/h (0 Bft)
01.07.2015 04:50 11,3 C 11,1 C 85 % 1022,4 hPa 0,0 mm 0,0 km/h (0 Bft) W 270 8,9 C 0,0 km/h (0 Bft)
01.07.2015 04:55 11,2 C 11,1 C 85 % 1022,5 hPa 0,0 mm 0,0 km/h (0 Bft) W 270 8,8 C 0,0 km/h (0 Bft)
01.07.2015 05:00 11,1 C 10,9 C 85 % 1022,5 hPa 0,0 mm 0,0 km/h (0 Bft) SW 225 8,7 C 0,0 km/h (0 Bft)
01.07.2015 05:05 11,0 C 10,8 C 85 % 1022,5 hPa 0,0 mm 0,0 km/h (0 Bft) SW 225 8,6 C 0,0 km/h (0 Bft)
01.07.2015 05:10 11,1 C 10,9 C 85 % 1022,5 hPa 0,0 mm 0,0 km/h (0 Bft) SW 225 8,7 C 0,0 km/h (0 Bft)
01.07.2015 05:15 11,1 C 10,9 C 85 % 1022,6 hPa 0,0 mm 0,0 km/h (0 Bft) SW 225 8,7 C 0,0 km/h (0 Bft)
01.07.2015 05:20 10,9 C 10,8 C 85 % 1022,6 hPa 0,0 mm 0,0 km/h (0 Bft) O 90 8,5 C 0,0 km/h (0 Bft)
01.07.2015 05:25 10,9 C 10,8 C 85 % 1022,6 hPa 0,0 mm 0,0 km/h (0 Bft) O 90 8,5 C 0,0 km/h (0 Bft)
01.07.2015 05:30 10,8 C 10,7 C 85 % 1022,6 hPa 0,0 mm 0,0 km/h (0 Bft) O 90 8,4 C 0,0 km/h (0 Bft)
01.07.2015 05:35 10,8 C 10,7 C 85 % 1022,6 hPa 0,0 mm 0,0 km/h (0 Bft) O 90 8,4 C 0,0 km/h (0 Bft)
01.07.2015 05:40 11,1 C 10,9 C 86 % 1022,6 hPa 0,0 mm 0,0 km/h (0 Bft) O-SO 112 8,8 C 0,0 km/h (0 Bft)
01.07.2015 05:45 11,0 C 10,8 C 86 % 1022,6 hPa 0,0 mm 0,0 km/h (0 Bft) O 90 8,7 C 0,0 km/h (0 Bft)
01.07.2015 05:50 11,0 C 10,9 C 86 % 1022,6 hPa 0,0 mm 0,0 km/h (0 Bft) O-SO 112 8,7 C 0,0 km/h (0 Bft)
01.07.2015 05:55 11,3 C 11,1 C 86 % 1022,8 hPa 0,0 mm 0,0 km/h (0 Bft) O-NO 67 9,0 C 0,0 km/h (0 Bft)
01.07.2015 06:00 11,4 C 11,3 C 86 % 1022,8 hPa 0,0 mm 0,0 km/h (0 Bft) O-SO 112 9,1 C 0,0 km/h (0 Bft)
01.07.2015 06:05 11,5 C 11,5 C 86 % 1022,8 hPa 0,0 mm 0,0 km/h (0 Bft) O 90 9,2 C 0,0 km/h (0 Bft)
01.07.2015 06:10 11,9 C 14,3 C 83 % 1022,8 hPa 0,0 mm 0,0 km/h (0 Bft) O 90 9,1 C 0,0 km/h (0 Bft)
01.07.2015 06:15 12,2 C 15,7 C 83 % 1022,6 hPa 0,0 mm 0,0 km/h (0 Bft) O 90 9,4 C 0,0 km/h (0 Bft)
01.07.2015 06:20 12,9 C 17,1 C 82 % 1022,6 hPa 0,0 mm 0,0 km/h (0 Bft) O-NO 67 9,9 C 0,0 km/h (0 Bft)
01.07.2015 06:25 13,5 C 17,8 C 81 % 1022,6 hPa 0,0 mm 0,0 km/h (0 Bft) NO 45 10,3 C 0,0 km/h (0 Bft)
01.07.2015 06:30 13,8 C 19,2 C 79 % 1022,6 hPa 0,0 mm 0,0 km/h (0 Bft) O-NO 67 10,2 C 0,0 km/h (0 Bft)
01.07.2015 06:35 14,1 C 20,1 C 83 % 1022,8 hPa 0,0 mm 0,0 km/h (0 Bft) N-NO 22 11,3 C 0,0 km/h (0 Bft)
01.07.2015 06:40 14,5 C 20,7 C 82 % 1022,8 hPa 0,0 mm 0,0 km/h (0 Bft) O-NO 67 11,5 C 0,0 km/h (0 Bft)
01.07.2015 06:45 14,8 C 21,0 C 81 % 1022,8 hPa 0,0 mm 0,0 km/h (0 Bft) O-NO 67 11,6 C 0,0 km/h (0 Bft)
01.07.2015 06:50 15,7 C 21,5 C 80 % 1022,8 hPa 0,0 mm 0,0 km/h (0 Bft) O-SO 112 12,3 C 0,0 km/h (0 Bft)
01.07.2015 06:55 16,5 C 22,5 C 75 % 1022,8 hPa 0,0 mm 0,0 km/h (0 Bft) NO 45 12,1 C 0,0 km/h (0 Bft)
01.07.2015 07:00 16,8 C 23,6 C 76 % 1022,8 hPa 0,0 mm 0,0 km/h (0 Bft) O-NO 67 12,5 C 0,0 km/h (0 Bft)
01.07.2015 07:03 16,7 C 24,0 C 75 % 1022,8 hPa 0,0 mm 0,0 km/h (0 Bft) O-NO 67 12,2 C 0,0 km/h (0 Bft)
01.07.2015 07:04 16,7 C 24,0 C 75 % 1022,8 hPa 0,0 mm 0,0 km/h (0 Bft) O-NO 67 12,2 C 0,0 km/h (0 Bft)
01.07.2015 07:05 16,7 C 24,0 C 75 % 1022,8 hPa 0,0 mm 0,0 km/h (0 Bft) O-NO 67 12,2 C 0,0 km/h (0 Bft)
01.07.2015 07:10 17,3 C 24,3 C 74 % 1022,8 hPa 0,0 mm 0,0 km/h (0 Bft) NO 45 12,6 C 0,0 km/h (0 Bft)
01.07.2015 07:15 18,0 C 25,3 C 74 % 1022,9 hPa 0,0 mm 0,0 km/h (0 Bft) O-SO 112 13,3 C 0,0 km/h (0 Bft)
01.07.2015 07:20 18,6 C 26,8 C 71 % 1022,9 hPa 0,0 mm 0,0 km/h (0 Bft) NO 45 13,2 C 0,0 km/h (0 Bft)
01.07.2015 07:25 18,5 C 27,2 C 69 % 1022,9 hPa 0,0 mm 0,0 km/h (0 Bft) NO 45 12,7 C 0,0 km/h (0 Bft)
01.07.2015 07:30 18,7 C 27,8 C 67 % 1022,9 hPa 0,0 mm 0,0 km/h (0 Bft) O-SO 112 12,4 C 0,0 km/h (0 Bft)
01.07.2015 07:35 18,9 C 28,1 C 67 % 1023,1 hPa 0,0 mm 0,0 km/h (0 Bft) O-SO 112 12,6 C 0,0 km/h (0 Bft)
01.07.2015 07:40 19,1 C 28,8 C 67 % 1023,1 hPa 0,0 mm 0,0 km/h (0 Bft) NO 45 12,8 C 0,0 km/h (0 Bft)
01.07.2015 07:45 19,8 C 29,5 C 67 % 1023,1 hPa 0,0 mm 0,0 km/h (0 Bft) NO 45 13,5 C 0,0 km/h (0 Bft)
01.07.2015 07:50 20,1 C 30,2 C 67 % 1023,1 hPa 0,0 mm 0,0 km/h (0 Bft) NO 45 13,8 C 0,0 km/h (0 Bft)
01.07.2015 07:55 20,4 C 30,3 C 67 % 1022,8 hPa 0,0 mm 0,0 km/h (0 Bft) SO 135 14,1 C 0,0 km/h (0 Bft)
01.07.2015 08:00 20,7 C 30,6 C 66 % 1022,8 hPa 0,0 mm 0,0 km/h (0 Bft) O-NO 67 14,1 C 0,0 km/h (0 Bft)
01.07.2015 08:05 20,8 C 30,9 C 66 % 1022,8 hPa 0,0 mm 0,0 km/h (0 Bft) NO 45 14,2 C 0,0 km/h (0 Bft)
01.07.2015 08:10 21,4 C 31,4 C 66 % 1022,8 hPa 0,0 mm 0,0 km/h (0 Bft) O 90 14,8 C 0,0 km/h (0 Bft)
01.07.2015 08:15 21,8 C 31,5 C 65 % 1022,6 hPa 0,0 mm 0,0 km/h (0 Bft) O-NO 67 14,9 C 0,0 km/h (0 Bft)
01.07.2015 08:20 22,1 C 31,3 C 64 % 1022,6 hPa 0,0 mm 0,0 km/h (0 Bft) O-NO 67 15,0 C 0,0 km/h (0 Bft)
01.07.2015 08:25 22,6 C 31,7 C 63 % 1022,6 hPa 0,0 mm 0,0 km/h (0 Bft) O-NO 67 15,2 C 0,0 km/h (0 Bft)
01.07.2015 08:30 22,3 C 31,8 C 62 % 1022,6 hPa 0,0 mm 0,0 km/h (0 Bft) NO 45 14,7 C 0,0 km/h (0 Bft)
01.07.2015 08:35 22,6 C 31,6 C 62 % 1022,9 hPa 0,0 mm 0,0 km/h (0 Bft) O-NO 67 14,9 C 0,0 km/h (0 Bft)
01.07.2015 08:40 22,6 C 31,5 C 62 % 1022,9 hPa 0,0 mm 0,0 km/h (0 Bft) O-NO 67 14,9 C 0,0 km/h (0 Bft)
01.07.2015 08:45 22,8 C 31,4 C 60 % 1022,9 hPa 0,0 mm 0,0 km/h (0 Bft) O 90 14,6 C 0,0 km/h (0 Bft)
01.07.2015 08:50 22,9 C 31,3 C 60 % 1022,9 hPa 0,0 mm 0,0 km/h (0 Bft) N-NO 22 14,7 C 0,0 km/h (0 Bft)
01.07.2015 08:55 23,4 C 31,3 C 60 % 1023,1 hPa 0,0 mm 0,0 km/h (0 Bft) O-NO 67 15,2 C 0,0 km/h (0 Bft)
01.07.2015 09:00 23,3 C 31,2 C 59 % 1023,1 hPa 0,0 mm 0,3 km/h (0 Bft) O 90 14,8 C 2,6 km/h (1 Bft)
01.07.2015 09:05 23,4 C 30,8 C 59 % 1023,1 hPa 0,0 mm 0,8 km/h (0 Bft) O-SO 112 14,9 C 0,0 km/h (0 Bft)
01.07.2015 09:10 23,6 C 30,9 C 59 % 1023,1 hPa 0,0 mm 1,0 km/h (0 Bft) NO 45 15,1 C 4,4 km/h (1 Bft)
01.07.2015 09:15 24,0 C 31,0 C 58 % 1023,2 hPa 0,0 mm 1,0 km/h (0 Bft) N-NO 22 15,2 C 0,0 km/h (0 Bft)
01.07.2015 09:20 24,0 C 31,3 C 57 % 1023,2 hPa 0,0 mm 1,8 km/h (1 Bft) NO 45 14,9 C 6,7 km/h (2 Bft)
01.07.2015 09:25 23,9 C 31,0 C 56 % 1023,2 hPa 0,0 mm 2,3 km/h (1 Bft) O-SO 112 14,6 C 3,6 km/h (1 Bft)
01.07.2015 09:30 24,8 C 31,5 C 57 % 1023,2 hPa 0,0 mm 2,1 km/h (1 Bft) N-NO 22 15,7 C 6,7 km/h (2 Bft)
01.07.2015 09:35 24,8 C 31,4 C 53 % 1023,6 hPa 0,0 mm 2,6 km/h (1 Bft) O-NO 67 14,6 C 5,2 km/h (1 Bft)
01.07.2015 09:40 24,7 C 31,4 C 55 % 1023,6 hPa 0,0 mm 2,8 km/h (1 Bft) O-NO 67 15,0 C 5,2 km/h (1 Bft)
01.07.2015 09:45 24,9 C 31,5 C 55 % 1023,6 hPa 0,0 mm 2,3 km/h (1 Bft) NW 315 15,2 C 3,9 km/h (1 Bft)
01.07.2015 09:50 25,2 C 31,8 C 53 % 1023,6 hPa 0,0 mm 2,6 km/h (1 Bft) NW 315 14,9 C 7,8 km/h (2 Bft)
01.07.2015 09:55 25,1 C 32,2 C 53 % 1023,8 hPa 0,0 mm 2,6 km/h (1 Bft) SO 135 14,8 C 2,6 km/h (1 Bft)
01.07.2015 10:00 25,7 C 32,3 C 54 % 1023,8 hPa 0,0 mm 2,6 km/h (1 Bft) N-NW 337 15,7 C 9,1 km/h (2 Bft)
01.07.2015 10:05 25,7 C 32,0 C 54 % 1023,8 hPa 0,0 mm 3,6 km/h (1 Bft) NO 45 15,7 C 8,5 km/h (2 Bft)
01.07.2015 10:10 25,5 C 31,6 C 55 % 1023,8 hPa 0,0 mm 4,9 km/h (1 Bft) NO 45 15,8 C 10,4 km/h (2 Bft)
01.07.2015 10:15 25,6 C 31,7 C 55 % 1024,2 hPa 0,0 mm 4,4 km/h (1 Bft) O 90 15,9 C 4,7 km/h (1 Bft)
01.07.2015 10:20 25,2 C 31,2 C 54 % 1024,2 hPa 0,0 mm 4,9 km/h (1 Bft) O-SO 112 15,2 C 11,4 km/h (2 Bft)
01.07.2015 10:25 25,1 C 31,0 C 54 % 1024,2 hPa 0,0 mm 6,0 km/h (2 Bft) O-NO 67 15,1 C 7,8 km/h (2 Bft)
01.07.2015 10:30 25,2 C 31,3 C 54 % 1024,2 hPa 0,0 mm 4,4 km/h (1 Bft) N-NO 22 15,2 C 12,7 km/h (3 Bft)
01.07.2015 10:35 25,4 C 31,3 C 53 % 1024,4 hPa 0,0 mm 3,9 km/h (1 Bft) O-NO 67 15,1 C 2,6 km/h (1 Bft)
01.07.2015 10:40 25,8 C 31,4 C 54 % 1024,4 hPa 0,0 mm 3,9 km/h (1 Bft) O-SO 112 15,8 C 3,9 km/h (1 Bft)
01.07.2015 10:45 25,8 C 31,4 C 52 % 1024,4 hPa 0,0 mm 4,4 km/h (1 Bft) O-NO 67 15,2 C 7,3 km/h (2 Bft)
01.07.2015 10:50 25,8 C 31,3 C 52 % 1024,4 hPa 0,0 mm 4,7 km/h (1 Bft) N-NO 22 15,2 C 12,9 km/h (3 Bft)
01.07.2015 10:55 25,8 C 31,3 C 51 % 1024,5 hPa 0,0 mm 4,4 km/h (1 Bft) O-SO 112 14,9 C 6,5 km/h (2 Bft)
01.07.2015 11:00 25,8 C 31,1 C 52 % 1024,5 hPa 0,0 mm 5,7 km/h (1 Bft) NO 45 15,2 C 6,7 km/h (2 Bft)
01.07.2015 11:05 25,8 C 31,0 C 52 % 1024,5 hPa 0,0 mm 6,0 km/h (2 Bft) N-NO 22 15,2 C 12,4 km/h (3 Bft)
01.07.2015 11:10 25,9 C 30,8 C 51 % 1024,5 hPa 0,0 mm 7,3 km/h (2 Bft) W 270 15,0 C 17,3 km/h (3 Bft)
01.07.2015 11:15 25,9 C 30,5 C 50 % 1024,6 hPa 0,0 mm 8,5 km/h (2 Bft) N-NO 22 14,7 C 6,2 km/h (2 Bft)
01.07.2015 11:20 25,6 C 30,1 C 49 % 1024,6 hPa 0,0 mm 10,1 km/h (2 Bft) S 180 14,1 C 19,9 km/h (4 Bft)
01.07.2015 11:25 25,6 C 30,1 C 51 % 1024,6 hPa 0,0 mm 9,1 km/h (2 Bft) N-NO 22 14,7 C 9,8 km/h (2 Bft)
01.07.2015 11:30 25,8 C 30,0 C 51 % 1024,6 hPa 0,0 mm 8,5 km/h (2 Bft) N-NW 337 14,9 C 12,4 km/h (3 Bft)
01.07.2015 11:35 26,0 C 30,0 C 50 % 1024,6 hPa 0,0 mm 9,1 km/h (2 Bft) N-NO 22 14,8 C 7,3 km/h (2 Bft)
01.07.2015 11:40 26,0 C 29,9 C 49 % 1024,6 hPa 0,0 mm 9,6 km/h (2 Bft) N-NW 337 14,4 C 6,5 km/h (2 Bft)
01.07.2015 11:45 26,0 C 30,0 C 49 % 1024,6 hPa 0,0 mm 9,8 km/h (2 Bft) NO 45 14,4 C 10,6 km/h (2 Bft)
01.07.2015 11:50 25,9 C 29,9 C 49 % 1024,6 hPa 0,0 mm 9,3 km/h (2 Bft) N-NO 22 14,4 C 11,7 km/h (2 Bft)
01.07.2015 11:55 25,9 C 29,9 C 50 % 1024,4 hPa 0,0 mm 9,1 km/h (2 Bft) NO 45 14,7 C 9,3 km/h (2 Bft)
01.07.2015 12:00 26,0 C 29,9 C 49 % 1024,4 hPa 0,0 mm 9,6 km/h (2 Bft) N-NO 22 14,4 C 13,2 km/h (3 Bft)
01.07.2015 12:05 26,1 C 30,1 C 49 % 1024,4 hPa 0,0 mm 9,1 km/h (2 Bft) O-NO 67 14,5 C 12,7 km/h (3 Bft)
01.07.2015 12:10 26,4 C 30,5 C 47 % 1024,4 hPa 0,0 mm 7,8 km/h (2 Bft) O-NO 67 14,2 C 6,7 km/h (2 Bft)
01.07.2015 12:15 26,6 C 30,8 C 49 % 1024,6 hPa 0,0 mm 6,2 km/h (2 Bft) N-NO 22 15,0 C 13,7 km/h (3 Bft)
01.07.2015 12:20 26,8 C 31,1 C 47 % 1024,6 hPa 0,0 mm 5,7 km/h (1 Bft) NO 45 14,5 C 9,8 km/h (2 Bft)
01.07.2015 12:25 26,8 C 31,1 C 47 % 1024,6 hPa 0,0 mm 7,3 km/h (2 Bft) NW 315 14,5 C 5,2 km/h (1 Bft)
01.07.2015 12:30 26,8 C 31,0 C 47 % 1024,6 hPa 0,0 mm 8,3 km/h (2 Bft) NO 45 14,5 C 8,8 km/h (2 Bft)
01.07.2015 12:35 27,2 C 31,0 C 47 % 1024,4 hPa 0,0 mm 7,5 km/h (2 Bft) N-NO 22 14,9 C 7,0 km/h (2 Bft)
01.07.2015 12:40 27,5 C 31,6 C 46 % 1024,4 hPa 0,0 mm 6,0 km/h (2 Bft) O-NO 67 14,8 C 6,5 km/h (2 Bft)
01.07.2015 12:45 27,4 C 31,7 C 46 % 1024,4 hPa 0,0 mm 5,4 km/h (1 Bft) NO 45 14,7 C 8,8 km/h (2 Bft)
01.07.2015 12:50 27,3 C 31,6 C 45 % 1024,4 hPa 0,0 mm 7,0 km/h (2 Bft) N-NO 22 14,3 C 10,9 km/h (2 Bft)
01.07.2015 12:55 27,2 C 31,2 C 46 % 1024,2 hPa 0,0 mm 7,5 km/h (2 Bft) O-NO 67 14,6 C 8,0 km/h (2 Bft)
01.07.2015 13:00 27,3 C 31,3 C 46 % 1024,2 hPa 0,0 mm 7,0 km/h (2 Bft) N-NO 22 14,6 C 5,2 km/h (1 Bft)
01.07.2015 13:03 27,5 C 31,5 C 46 % 1024,2 hPa 0,0 mm 5,7 km/h (1 Bft) O-NO 67 14,8 C 3,6 km/h (1 Bft)
01.07.2015 13:05 27,5 C 31,5 C 46 % 1024,2 hPa 0,0 mm 5,7 km/h (1 Bft) O-NO 67 14,8 C 3,6 km/h (1 Bft)
01.07.2015 13:10 27,6 C 31,0 C 45 % 1024,2 hPa 0,0 mm 6,2 km/h (2 Bft) W-SW 247 14,6 C 9,3 km/h (2 Bft)
01.07.2015 13:15 27,6 C 30,3 C 45 % 1024,1 hPa 0,0 mm 6,7 km/h (2 Bft) NW 315 14,6 C 6,0 km/h (2 Bft)
01.07.2015 13:20 27,9 C 30,0 C 45 % 1024,1 hPa 0,0 mm 5,7 km/h (1 Bft) O-NO 67 14,8 C 3,4 km/h (1 Bft)
01.07.2015 13:25 28,2 C 30,6 C 46 % 1024,1 hPa 0,0 mm 4,9 km/h (1 Bft) NO 45 15,5 C 3,4 km/h (1 Bft)
01.07.2015 13:30 28,5 C 30,9 C 46 % 1024,1 hPa 0,0 mm 5,7 km/h (1 Bft) NO 45 15,7 C 22,3 km/h (4 Bft)
01.07.2015 13:35 28,3 C 31,2 C 46 % 1023,8 hPa 0,0 mm 6,0 km/h (2 Bft) O-NO 67 15,6 C 4,4 km/h (1 Bft)
01.07.2015 13:40 28,4 C 31,9 C 46 % 1023,8 hPa 0,0 mm 5,4 km/h (1 Bft) NO 45 15,6 C 10,1 km/h (2 Bft)
01.07.2015 13:45 28,6 C 32,2 C 46 % 1023,8 hPa 0,0 mm 5,2 km/h (1 Bft) N-NO 22 15,8 C 7,0 km/h (2 Bft)
01.07.2015 13:50 28,4 C 32,4 C 45 % 1023,8 hPa 0,0 mm 5,7 km/h (1 Bft) NW 315 15,3 C 11,4 km/h (2 Bft)
01.07.2015 13:55 28,5 C 32,3 C 44 % 1023,6 hPa 0,0 mm 8,0 km/h (2 Bft) O-NO 67 15,0 C 11,4 km/h (2 Bft)
01.07.2015 14:00 28,6 C 32,4 C 45 % 1023,6 hPa 0,0 mm 8,3 km/h (2 Bft) NO 45 15,5 C 9,1 km/h (2 Bft)
01.07.2015 14:05 28,6 C 32,4 C 45 % 1023,6 hPa 0,0 mm 6,7 km/h (2 Bft) O-NO 67 15,5 C 10,9 km/h (2 Bft)
01.07.2015 14:10 28,3 C 32,3 C 44 % 1023,6 hPa 0,0 mm 6,7 km/h (2 Bft) N-NW 337 14,9 C 7,8 km/h (2 Bft)
01.07.2015 14:15 28,5 C 32,3 C 44 % 1023,6 hPa 0,0 mm 8,3 km/h (2 Bft) N-NW 337 15,0 C 10,6 km/h (2 Bft)
01.07.2015 14:20 28,9 C 32,6 C 45 % 1023,6 hPa 0,0 mm 7,3 km/h (2 Bft) NO 45 15,8 C 4,1 km/h (1 Bft)
01.07.2015 14:25 28,9 C 32,9 C 43 % 1023,6 hPa 0,0 mm 6,0 km/h (2 Bft) NW 315 15,0 C 12,2 km/h (2 Bft)
01.07.2015 14:30 29,2 C 32,9 C 44 % 1023,6 hPa 0,0 mm 6,5 km/h (2 Bft) N-NW 337 15,7 C 6,7 km/h (2 Bft)
01.07.2015 14:35 29,4 C 33,0 C 43 % 1023,5 hPa 0,0 mm 7,8 km/h (2 Bft) NW 315 15,5 C 15,5 km/h (3 Bft)
01.07.2015 14:40 29,5 C 32,9 C 42 % 1023,5 hPa 0,0 mm 7,3 km/h (2 Bft) NW 315 15,2 C 6,2 km/h (2 Bft)
01.07.2015 14:45 29,6 C 33,3 C 42 % 1023,5 hPa 0,0 mm 6,2 km/h (2 Bft) NO 45 15,3 C 3,4 km/h (1 Bft)
01.07.2015 14:50 29,3 C 33,0 C 40 % 1023,5 hPa 0,0 mm 7,5 km/h (2 Bft) NW 315 14,3 C 10,1 km/h (2 Bft)
01.07.2015 14:55 29,3 C 32,8 C 40 % 1023,6 hPa 0,0 mm 8,5 km/h (2 Bft) O-NO 67 14,3 C 4,9 km/h (1 Bft)
01.07.2015 15:00 29,7 C 33,1 C 40 % 1023,6 hPa 0,0 mm 7,3 km/h (2 Bft) N-NW 337 14,6 C 10,4 km/h (2 Bft)
01.07.2015 15:05 29,8 C 33,0 C 40 % 1023,6 hPa 0,0 mm 7,3 km/h (2 Bft) NW 315 14,7 C 8,8 km/h (2 Bft)
01.07.2015 15:10 29,7 C 32,8 C 40 % 1023,6 hPa 0,0 mm 7,8 km/h (2 Bft) N-NW 337 14,6 C 4,9 km/h (1 Bft)
01.07.2015 15:15 29,7 C 33,1 C 40 % 1023,3 hPa 0,0 mm 7,3 km/h (2 Bft) N-NO 22 14,6 C 4,4 km/h (1 Bft)
01.07.2015 15:20 29,2 C 33,1 C 39 % 1023,3 hPa 0,0 mm 6,2 km/h (2 Bft) NW 315 13,8 C 10,4 km/h (2 Bft)
01.07.2015 15:25 29,3 C 33,4 C 39 % 1023,3 hPa 0,0 mm 6,2 km/h (2 Bft) O-NO 67 13,9 C 5,4 km/h (1 Bft)
01.07.2015 15:30 29,3 C 33,3 C 40 % 1023,3 hPa 0,0 mm 6,7 km/h (2 Bft) NW 315 14,3 C 9,1 km/h (2 Bft)
01.07.2015 15:35 29,3 C 33,4 C 39 % 1023,5 hPa 0,0 mm 6,7 km/h (2 Bft) N-NO 22 13,9 C 6,2 km/h (2 Bft)
01.07.2015 15:40 29,0 C 33,4 C 40 % 1023,5 hPa 0,0 mm 6,2 km/h (2 Bft) NW 315 14,0 C 8,3 km/h (2 Bft)
01.07.2015 15:45 29,1 C 33,3 C 40 % 1023,5 hPa 0,0 mm 6,5 km/h (2 Bft) O 90 14,1 C 9,1 km/h (2 Bft)
01.07.2015 15:50 29,1 C 33,1 C 39 % 1023,5 hPa 0,0 mm 7,8 km/h (2 Bft) O 90 13,7 C 10,4 km/h (2 Bft)
01.07.2015 15:55 28,8 C 32,8 C 39 % 1023,4 hPa 0,0 mm 8,8 km/h (2 Bft) NW 315 13,4 C 4,1 km/h (1 Bft)
01.07.2015 16:00 28,7 C 32,8 C 39 % 1023,4 hPa 0,0 mm 8,5 km/h (2 Bft) NO 45 13,4 C 12,2 km/h (2 Bft)
01.07.2015 16:05 28,6 C 32,8 C 39 % 1023,4 hPa 0,0 mm 8,0 km/h (2 Bft) NW 315 13,3 C 13,7 km/h (3 Bft)
01.07.2015 16:10 28,6 C 32,8 C 39 % 1023,4 hPa 0,0 mm 8,3 km/h (2 Bft) NW 315 13,3 C 3,6 km/h (1 Bft)
01.07.2015 16:15 28,5 C 33,1 C 39 % 1023,4 hPa 0,0 mm 7,8 km/h (2 Bft) O-NO 67 13,2 C 7,3 km/h (2 Bft)
01.07.2015 16:20 28,3 C 33,2 C 39 % 1023,4 hPa 0,0 mm 7,5 km/h (2 Bft) N-NW 337 13,0 C 17,6 km/h (3 Bft)
01.07.2015 16:25 28,2 C 33,0 C 38 % 1023,4 hPa 0,0 mm 7,8 km/h (2 Bft) N-NO 22 12,5 C 17,1 km/h (3 Bft)
01.07.2015 16:30 28,0 C 33,0 C 38 % 1023,4 hPa 0,0 mm 7,8 km/h (2 Bft) O-NO 67 12,3 C 6,5 km/h (2 Bft)
01.07.2015 16:35 27,9 C 33,1 C 39 % 1023,4 hPa 0,0 mm 6,5 km/h (2 Bft) NW 315 12,6 C 7,3 km/h (2 Bft)
01.07.2015 16:40 27,8 C 33,0 C 38 % 1023,4 hPa 0,0 mm 6,7 km/h (2 Bft) N-NO 22 12,2 C 8,8 km/h (2 Bft)
01.07.2015 16:45 27,9 C 33,2 C 38 % 1023,4 hPa 0,0 mm 6,7 km/h (2 Bft) N-NO 22 12,2 C 5,7 km/h (1 Bft)
01.07.2015 16:50 27,9 C 33,2 C 38 % 1023,4 hPa 0,0 mm 7,3 km/h (2 Bft) N-NW 337 12,2 C 7,8 km/h (2 Bft)
01.07.2015 16:55 27,9 C 33,0 C 38 % 1023,2 hPa 0,0 mm 8,3 km/h (2 Bft) NO 45 12,2 C 7,0 km/h (2 Bft)
01.07.2015 17:00 27,9 C 32,9 C 39 % 1023,2 hPa 0,0 mm 8,0 km/h (2 Bft) O 90 12,6 C 10,4 km/h (2 Bft)
01.07.2015 17:05 27,9 C 32,8 C 38 % 1023,2 hPa 0,0 mm 7,3 km/h (2 Bft) O-SO 112 12,2 C 9,3 km/h (2 Bft)
01.07.2015 17:10 27,8 C 31,3 C 39 % 1023,2 hPa 0,0 mm 6,7 km/h (2 Bft) O-NO 67 12,6 C 7,0 km/h (2 Bft)
01.07.2015 17:15 27,7 C 30,4 C 39 % 1023,0 hPa 0,0 mm 4,7 km/h (1 Bft) NO 45 12,5 C 3,4 km/h (1 Bft)
01.07.2015 17:20 27,5 C 29,4 C 39 % 1023,0 hPa 0,0 mm 5,4 km/h (1 Bft) NO 45 12,3 C 9,8 km/h (2 Bft)
01.07.2015 17:25 27,5 C 29,0 C 39 % 1023,0 hPa 0,0 mm 7,5 km/h (2 Bft) SO 135 12,3 C 5,2 km/h (1 Bft)
01.07.2015 17:30 27,6 C 28,6 C 38 % 1023,0 hPa 0,0 mm 8,0 km/h (2 Bft) O-NO 67 12,0 C 6,5 km/h (2 Bft)
01.07.2015 17:35 27,4 C 28,5 C 38 % 1023,0 hPa 0,0 mm 7,5 km/h (2 Bft) S-SO 157 11,8 C 6,7 km/h (2 Bft)
01.07.2015 17:40 27,3 C 28,3 C 38 % 1023,0 hPa 0,0 mm 7,5 km/h (2 Bft) N-NO 22 11,7 C 8,0 km/h (2 Bft)
01.07.2015 17:45 27,2 C 28,3 C 37 % 1023,0 hPa 0,0 mm 6,0 km/h (2 Bft) O-NO 67 11,2 C 6,5 km/h (2 Bft)
01.07.2015 17:50 27,4 C 28,3 C 39 % 1023,0 hPa 0,0 mm 5,4 km/h (1 Bft) NO 45 12,2 C 12,4 km/h (3 Bft)
01.07.2015 17:55 27,3 C 28,2 C 38 % 1023,0 hPa 0,0 mm 6,7 km/h (2 Bft) N-NO 22 11,7 C 7,5 km/h (2 Bft)
01.07.2015 18:00 27,2 C 28,1 C 38 % 1023,0 hPa 0,0 mm 6,7 km/h (2 Bft) N-NO 22 11,6 C 4,7 km/h (1 Bft)
01.07.2015 18:05 27,3 C 28,1 C 38 % 1023,0 hPa 0,0 mm 5,7 km/h (1 Bft) O-NO 67 11,7 C 9,8 km/h (2 Bft)
01.07.2015 18:10 27,2 C 28,0 C 37 % 1023,0 hPa 0,0 mm 8,3 km/h (2 Bft) NO 45 11,2 C 9,6 km/h (2 Bft)
01.07.2015 18:15 27,2 C 27,9 C 37 % 1023,0 hPa 0,0 mm 8,3 km/h (2 Bft) N-NO 22 11,2 C 7,3 km/h (2 Bft)
01.07.2015 18:20 27,2 C 28,0 C 38 % 1023,0 hPa 0,0 mm 5,4 km/h (1 Bft) N-NO 22 11,6 C 11,7 km/h (2 Bft)
01.07.2015 18:25 27,2 C 27,9 C 37 % 1023,0 hPa 0,0 mm 5,7 km/h (1 Bft) NW 315 11,2 C 9,1 km/h (2 Bft)
01.07.2015 18:30 27,3 C 28,0 C 38 % 1023,0 hPa 0,0 mm 7,5 km/h (2 Bft) N-NW 337 11,7 C 7,8 km/h (2 Bft)
01.07.2015 18:35 27,2 C 29,0 C 37 % 1023,1 hPa 0,0 mm 6,0 km/h (2 Bft) O-NO 67 11,2 C 2,6 km/h (1 Bft)
01.07.2015 18:40 27,1 C 30,6 C 38 % 1023,1 hPa 0,0 mm 4,9 km/h (1 Bft) N-NW 337 11,5 C 4,4 km/h (1 Bft)
01.07.2015 18:45 27,1 C 31,3 C 39 % 1023,1 hPa 0,0 mm 3,9 km/h (1 Bft) NO 45 11,9 C 4,7 km/h (1 Bft)
01.07.2015 18:50 27,0 C 32,0 C 39 % 1023,1 hPa 0,0 mm 3,9 km/h (1 Bft) N-NO 22 11,8 C 9,3 km/h (2 Bft)
01.07.2015 18:55 27,0 C 32,1 C 39 % 1023,0 hPa 0,0 mm 5,7 km/h (1 Bft) O-NO 67 11,8 C 14,2 km/h (3 Bft)
01.07.2015 19:00 27,0 C 31,6 C 40 % 1023,0 hPa 0,0 mm 7,5 km/h (2 Bft) NO 45 12,2 C 6,0 km/h (2 Bft)
01.07.2015 19:03 27,0 C 31,4 C 40 % 1023,0 hPa 0,0 mm 7,5 km/h (2 Bft) NO 45 12,2 C 11,1 km/h (2 Bft)
01.07.2015 19:06 27,0 C 31,4 C 40 % 1023,0 hPa 0,0 mm 7,5 km/h (2 Bft) NO 45 12,2 C 11,1 km/h (2 Bft)
01.07.2015 19:10 27,0 C 31,5 C 40 % 1023,0 hPa 0,0 mm 6,2 km/h (2 Bft) NO 45 12,2 C 10,1 km/h (2 Bft)
01.07.2015 19:15 26,8 C 31,3 C 41 % 1023,1 hPa 0,0 mm 6,2 km/h (2 Bft) N-NO 22 12,4 C 8,8 km/h (2 Bft)
01.07.2015 19:20 26,7 C 31,0 C 42 % 1023,1 hPa 0,0 mm 7,0 km/h (2 Bft) O-NO 67 12,7 C 7,5 km/h (2 Bft)
01.07.2015 19:25 26,7 C 30,8 C 42 % 1023,1 hPa 0,0 mm 6,5 km/h (2 Bft) NO 45 12,7 C 7,5 km/h (2 Bft)
01.07.2015 19:30 26,6 C 30,7 C 43 % 1023,1 hPa 0,0 mm 6,0 km/h (2 Bft) O-SO 112 13,0 C 6,5 km/h (2 Bft)
01.07.2015 19:35 26,6 C 30,6 C 43 % 1023,1 hPa 0,0 mm 4,9 km/h (1 Bft) NO 45 13,0 C 15,3 km/h (3 Bft)
01.07.2015 19:40 26,6 C 30,3 C 43 % 1023,1 hPa 0,0 mm 5,7 km/h (1 Bft) NO 45 13,0 C 11,4 km/h (2 Bft)
01.07.2015 19:45 26,5 C 30,1 C 43 % 1023,1 hPa 0,0 mm 6,5 km/h (2 Bft) O-SO 112 12,9 C 6,2 km/h (2 Bft)
01.07.2015 19:50 26,4 C 30,0 C 44 % 1023,1 hPa 0,0 mm 4,4 km/h (1 Bft) O 90 13,1 C 0,0 km/h (0 Bft)
01.07.2015 19:55 26,2 C 30,1 C 45 % 1023,2 hPa 0,0 mm 2,8 km/h (1 Bft) NO 45 13,3 C 6,7 km/h (2 Bft)
01.07.2015 20:00 26,2 C 29,9 C 45 % 1023,2 hPa 0,0 mm 1,6 km/h (1 Bft) S 180 13,3 C 0,0 km/h (0 Bft)
01.07.2015 20:05 25,8 C 30,0 C 46 % 1023,2 hPa 0,0 mm 1,6 km/h (1 Bft) O-SO 112 13,3 C 0,0 km/h (0 Bft)
01.07.2015 20:10 25,4 C 29,5 C 48 % 1023,2 hPa 0,0 mm 1,6 km/h (1 Bft) O 90 13,6 C 3,9 km/h (1 Bft)
01.07.2015 20:15 25,3 C 29,2 C 48 % 1023,2 hPa 0,0 mm 2,1 km/h (1 Bft) O 90 13,5 C 3,9 km/h (1 Bft)
01.07.2015 20:20 25,1 C 28,9 C 48 % 1023,2 hPa 0,0 mm 1,6 km/h (1 Bft) O-NO 67 13,3 C 0,0 km/h (0 Bft)
01.07.2015 20:25 24,8 C 28,7 C 49 % 1023,2 hPa 0,0 mm 0,8 km/h (0 Bft) O-SO 112 13,3 C 0,0 km/h (0 Bft)
01.07.2015 20:30 24,5 C 28,4 C 50 % 1023,2 hPa 0,0 mm 0,3 km/h (0 Bft) N 360 13,4 C 0,0 km/h (0 Bft)
01.07.2015 20:35 24,3 C 28,1 C 50 % 1023,4 hPa 0,0 mm 0,3 km/h (0 Bft) S-SO 157 13,2 C 0,0 km/h (0 Bft)
01.07.2015 20:40 23,9 C 27,6 C 51 % 1023,4 hPa 0,0 mm 0,3 km/h (0 Bft) S 180 13,1 C 0,0 km/h (0 Bft)
01.07.2015 20:45 23,7 C 27,3 C 52 % 1023,4 hPa 0,0 mm 0,0 km/h (0 Bft) S-SO 157 13,2 C 0,0 km/h (0 Bft)
01.07.2015 20:50 23,4 C 26,7 C 53 % 1023,4 hPa 0,0 mm 0,0 km/h (0 Bft) S 180 13,3 C 0,0 km/h (0 Bft)
01.07.2015 20:55 23,0 C 26,3 C 55 % 1023,2 hPa 0,0 mm 0,0 km/h (0 Bft) S-SO 157 13,5 C 0,0 km/h (0 Bft)
01.07.2015 21:00 22,7 C 25,5 C 57 % 1023,2 hPa 0,0 mm 0,3 km/h (0 Bft) O-SO 112 13,7 C 3,1 km/h (1 Bft)
01.07.2015 21:05 22,6 C 25,0 C 57 % 1023,2 hPa 0,0 mm 0,3 km/h (0 Bft) O-NO 67 13,6 C 3,1 km/h (1 Bft)
01.07.2015 21:10 22,3 C 24,1 C 57 % 1023,2 hPa 0,0 mm 1,3 km/h (1 Bft) O-NO 67 13,4 C 0,0 km/h (0 Bft)
01.07.2015 21:15 22,2 C 23,4 C 57 % 1023,4 hPa 0,0 mm 1,3 km/h (1 Bft) O-SO 112 13,3 C 0,0 km/h (0 Bft)
01.07.2015 21:20 21,9 C 22,7 C 58 % 1023,4 hPa 0,0 mm 0,5 km/h (0 Bft) S 180 13,3 C 3,4 km/h (1 Bft)
01.07.2015 21:25 21,7 C 22,3 C 58 % 1023,4 hPa 0,0 mm 0,8 km/h (0 Bft) S-SO 157 13,1 C 0,0 km/h (0 Bft)
01.07.2015 21:30 21,6 C 21,8 C 59 % 1023,4 hPa 0,0 mm 0,5 km/h (0 Bft) O-NO 67 13,2 C 3,1 km/h (1 Bft)
01.07.2015 21:35 21,4 C 21,6 C 59 % 1023,4 hPa 0,0 mm 0,3 km/h (0 Bft) SW 225 13,0 C 0,0 km/h (0 Bft)
01.07.2015 21:40 20,6 C 21,0 C 59 % 1023,4 hPa 0,0 mm 0,0 km/h (0 Bft) NO 45 12,3 C 0,0 km/h (0 Bft)
01.07.2015 21:45 20,3 C 20,4 C 60 % 1023,4 hPa 0,0 mm 0,0 km/h (0 Bft) S-SO 157 12,3 C 0,0 km/h (0 Bft)
01.07.2015 21:50 20,5 C 20,3 C 62 % 1023,4 hPa 0,0 mm 0,0 km/h (0 Bft) S-SO 157 13,0 C 0,0 km/h (0 Bft)
01.07.2015 21:55 20,4 C 20,2 C 63 % 1023,8 hPa 0,0 mm 0,0 km/h (0 Bft) SO 135 13,1 C 2,6 km/h (1 Bft)
01.07.2015 22:00 19,9 C 19,9 C 63 % 1023,8 hPa 0,0 mm 0,0 km/h (0 Bft) SO 135 12,6 C 0,0 km/h (0 Bft)
01.07.2015 22:05 19,6 C 19,6 C 64 % 1023,8 hPa 0,0 mm 0,0 km/h (0 Bft) NO 45 12,6 C 0,0 km/h (0 Bft)
01.07.2015 22:10 19,2 C 19,2 C 65 % 1023,8 hPa 0,0 mm 0,0 km/h (0 Bft) NO 45 12,5 C 0,0 km/h (0 Bft)
01.07.2015 22:15 19,2 C 19,1 C 66 % 1023,8 hPa 0,0 mm 0,0 km/h (0 Bft) O-SO 112 12,7 C 0,0 km/h (0 Bft)
01.07.2015 22:20 19,3 C 19,1 C 67 % 1023,8 hPa 0,0 mm 0,0 km/h (0 Bft) W-NW 292 13,0 C 0,0 km/h (0 Bft)
01.07.2015 22:25 19,1 C 18,9 C 69 % 1023,8 hPa 0,0 mm 0,0 km/h (0 Bft) O-SO 112 13,3 C 0,0 km/h (0 Bft)
01.07.2015 22:30 18,8 C 18,7 C 68 % 1023,8 hPa 0,0 mm 0,0 km/h (0 Bft) SO 135 12,8 C 0,0 km/h (0 Bft)
01.07.2015 22:35 18,7 C 18,6 C 69 % 1023,8 hPa 0,0 mm 0,0 km/h (0 Bft) S 180 12,9 C 0,0 km/h (0 Bft)
01.07.2015 22:40 18,4 C 18,4 C 68 % 1023,8 hPa 0,0 mm 0,0 km/h (0 Bft) S 180 12,4 C 0,0 km/h (0 Bft)
01.07.2015 22:45 18,1 C 18,1 C 69 % 1023,8 hPa 0,0 mm 0,0 km/h (0 Bft) SW 225 12,3 C 0,0 km/h (0 Bft)
01.07.2015 22:50 17,8 C 17,7 C 70 % 1023,8 hPa 0,0 mm 0,0 km/h (0 Bft) N 360 12,3 C 0,0 km/h (0 Bft)
01.07.2015 22:55 17,5 C 17,4 C 70 % 1023,8 hPa 0,0 mm 0,0 km/h (0 Bft) NW 315 12,0 C 0,0 km/h (0 Bft)
01.07.2015 23:00 17,4 C 17,3 C 72 % 1023,8 hPa 0,0 mm 0,0 km/h (0 Bft) W-SW 247 12,3 C 0,0 km/h (0 Bft)
01.07.2015 23:05 17,2 C 17,1 C 72 % 1023,8 hPa 0,0 mm 0,0 km/h (0 Bft) SW 225 12,1 C 0,0 km/h (0 Bft)
01.07.2015 23:10 17,6 C 17,3 C 74 % 1023,8 hPa 0,0 mm 0,0 km/h (0 Bft) O 90 12,9 C 0,0 km/h (0 Bft)
01.07.2015 23:15 17,6 C 17,3 C 74 % 1024,1 hPa 0,0 mm 0,0 km/h (0 Bft) O-SO 112 12,9 C 0,0 km/h (0 Bft)
01.07.2015 23:20 17,7 C 17,5 C 72 % 1024,1 hPa 0,0 mm 0,0 km/h (0 Bft) S-SO 157 12,6 C 0,0 km/h (0 Bft)
01.07.2015 23:25 17,7 C 17,7 C 72 % 1024,1 hPa 0,0 mm 0,0 km/h (0 Bft) O-SO 112 12,6 C 0,0 km/h (0 Bft)
01.07.2015 23:30 17,1 C 17,1 C 72 % 1024,1 hPa 0,0 mm 0,0 km/h (0 Bft) S 180 12,0 C 0,0 km/h (0 Bft)
01.07.2015 23:35 17,2 C 17,1 C 73 % 1023,9 hPa 0,0 mm 0,0 km/h (0 Bft) S-SO 157 12,3 C 0,0 km/h (0 Bft)
01.07.2015 23:40 17,3 C 17,4 C 72 % 1023,9 hPa 0,0 mm 0,0 km/h (0 Bft) S-SO 157 12,2 C 0,0 km/h (0 Bft)
01.07.2015 23:45 17,5 C 17,5 C 73 % 1023,9 hPa 0,0 mm 0,0 km/h (0 Bft) SO 135 12,6 C 0,0 km/h (0 Bft)
01.07.2015 23:50 17,0 C 17,0 C 72 % 1023,9 hPa 0,0 mm 0,0 km/h (0 Bft) SO 135 11,9 C 0,0 km/h (0 Bft)
01.07.2015 23:55 16,7 C 16,7 C 72 % 1024,0 hPa 0,0 mm 0,0 km/h (0 Bft) SO 135 11,6 C 0,0 km/h (0 Bft)
_ Min-Zeit 05:35 05:35 18:35 04:50 - 23:55 - - 05:35 23:55
Minimum _ 10,8 C 10,7 C 37 % 1022,4 hPa - 0,0 km/h (0 Bft) - - 8,4 C 0,0 km/h (0 Bft)
_ Max-Zeit 15:05 15:40 06:05 12:30 23:55 11:20 - - 10:15 13:30
Maximum _ 29,8 C 33,4 C 86 % 1024,6 hPa 0,0 mm 10,1 km/h
S (2 Bft)
- - 15,9 C 22,3 km/h
NO (4 Bft)
Durchschnitt _ 21,2 C 24,2 C 60 % 1023,3 hPa #0,0 mm 2,9 km/h (1 Bft) NO - 12,4 C 3,8 km/h (1 Bft)